Weather in Domashovo

Russia / Bryansk Oblast     53°27′33″N   34°03′19″E
temp.,
°C
wind,
m/s
gust,
m/s
humid.,
%
clouds,
%
prec.,
mm/h
press.,
hPa
HPBL,
m
16 june, wed
wed1600:00+15nnw23960 0.0 101252
03:00+13nnw23960 0.0 101261
06:00+14nnw26877 0.0 1013176
09:00+21n355942 0.0 1013574
12:00+24n3448100 0.0 10141620
15:00+25nnw4445100 0.0 10142202
18:00+21n256698 0.1 1015208
21:00+18nne39690 0.1 1017321
17 june, thu
thu1700:00+13ne29810 0.0 1019156
03:00+12ne29804 0.0 1020154
06:00+13ne28780 0.0 1022194
09:00+20ene46510 0.0 1022658
12:00+24ene45365 0.0 10231723
15:00+25ne44345 0.0 10231932
18:00+23ne44480 0.0 10231369
21:00+16ene26790 0.0 1025108
18 june, fri
fri1800:00+14e22895 0.0 102629
03:00+12ene239598 0.0 102648
06:00+14ene26865 0.0 1027160
09:00+20e35525 0.0 1027656
12:00+24ese35400 0.0 10261486
15:00+25ese34385 0.0 10261726
18:00+24ese34515 0.0 10251418
21:00+17se25845 0.0 1026104
19 june, sat
sat1900:00+15ese25941 0.0 102786
03:00+13ese23964 0.0 102756
06:00+14ese25900 0.0 1028146
09:00+21ese35601 0.0 1027712
12:00+24se34420 0.0 10261356
15:00+25se34421 0.0 10251612
18:00+24se33521 0.0 10241365
21:00+18se26853 0.0 1024113
20 june, sun
sun2000:00+16se25960 0.0 102595
03:00+14se2397100 0.0 102564
06:00+15ese24890 0.0 1025110
09:00+21se34620 0.0 1024583
12:00+25se34477 0.0 10231170
15:00+27sse334340 0.0 10221349
18:00+26se345247 0.0 10211131
21:00+19se258369 0.0 102181